sat.trackr.live / text

‹ back to catalog

STARLINK-6215

NORAD 57367 · 2023-099AR

PAYLOAD ACTIVE UNKNOWN

§ Identity

Operator
Country
US
Launch date
2023-07-16
Launch site
AFETR
Launch vehicle
Mass (kg)
RCS (m²)

Purposes: comms

External: N2YO · Heavens-Above · Gunter

§ Orbital elements

Epoch: 2026-05-25T01:18:13.849344Z

Period
94.27 min
Inclination
43.0016°
Eccentricity
0.0001044
Mean motion
15.27577865 rev/d
Perigee alt
482.3 km
Apogee alt
483.8 km
Semi-major
6,861.2 km
B*
3.3257e-5
RAAN
151.8113°
Arg perigee
266.8441°
Mean anomaly
93.2291°
Rev number
15,884

§ Raw data

STARLINK-62151 57367U 23099AR  26145.05432696  .00000653  00000+0  33257-4 0  99912 57367  43.0016 151.8113 0001044 266.8441  93.2291 15.27577865158849

JSON: /api/v1/satellites/57367 · /tle

For live sub-satellite position, see the globe view (requires WebGL).

§ Visibility from observer

Set your observer location to see the next 7 days of passes ≥ 10°. The values pass through the URL so the page stays shareable.

No JS? Fill the form by hand. The geolocation button needs JavaScript.